Weather History for EGPU - September, 2013

Change the Weather History Date:

Friday, September 6, 2013

  Actual Average Record
Temperature  
Mean Temperature 52 °F -  
Max Temperature 58 °F 57 °F 64 °F (2004)
Min Temperature 45 °F 49 °F 45 °F (2013)
Degree Days  
Heating Degree Days 14    
Growing Degree Days 2 (Base 50)    
Moisture  
Dew Point 45 °F    
Average Humidity 77    
Maximum Humidity 93    
Minimum Humidity 61    
Precipitation  
Precipitation 0.01 in 0.17 in - ()
Sea Level Pressure  
Sea Level Pressure 29.96 in    
Wind  
Wind Speed 11 mph ()    
Max Wind Speed 26 mph    
Max Gust Speed -    
Visibility 7.7 miles    
Events Rain    
Averages and records for this station are not official NWS values.
T = Trace of Precipitation, MM = Missing Value Source: Averaged Metar Reports

Daily Weather History Graph

Daily Weather History Graph

Search for Another Location

Airport or City:

Trip Planner

Search our weather history database for the weather conditions in past years. The results will help you decide how hot, cold, wet, or windy it might be!

Date:

Astronomy

Sep. 06, 2013 Rise Set
Actual Time 6:40 AM BST 8:09 PM BST
Civil Twilight 6:01 AM BST 8:48 PM BST
Nautical Twilight 5:12 AM BST 9:36 PM BST
Astronomical Twilight 4:17 AM BST 10:31 PM BST
Moon 8:00 AM BST (9/6) 7:59 PM BST (9/6)
Length of Visible Light 14h 46m
Length of Day
13h 28m
New Moon, 1% of the Moon is Illuminated
Sep 6
New Moon
Sep 12
First Quarter
Sep 19
Full
Sep 27
Last Quarter
Oct 5
New

Hourly Weather History & Observations

Time (BST) Temp. Windchill Dew Point Humidity Pressure Visibility Wind Dir Wind Speed Gust Speed Precip Events Conditions
12:20 AM 46.4 °F 42.9 °F 42.8 °F 87% 29.92 in 6.2 mi NNW 6.9 mph - N/A   Scattered Clouds
12:50 AM 47 °F - 43 °F 79% 29.94 in 19 mi North 5.8 mph - -   Partly Cloudy
12:50 AM 46.4 °F 43.5 °F 42.8 °F 87% 29.92 in 6.2 mi North 5.8 mph - N/A   Scattered Clouds
1:20 AM 46.4 °F 43.5 °F 42.8 °F 87% 29.92 in 6.2 mi North 5.8 mph - N/A   Partly Cloudy
1:50 AM 48.2 °F - 44.6 °F 87% 29.92 in 6.2 mi NE 3.5 mph - N/A   Mostly Cloudy
2:20 AM 48.2 °F - 42.8 °F 82% 29.92 in 6.2 mi NNE 1.2 mph - N/A   Partly Cloudy
2:50 AM 46.4 °F 45.2 °F 42.8 °F 87% 29.92 in 6.2 mi North 3.5 mph - N/A   Partly Cloudy
3:20 AM 46.4 °F 42.4 °F 42.8 °F 87% 29.92 in 6.2 mi NNE 8.1 mph - N/A   Unknown
3:50 AM 46 °F - 43 °F 84% 29.93 in 18 mi NNE 8.1 mph - -   Scattered Clouds
3:50 AM 46.4 °F 42.4 °F 42.8 °F 87% 29.92 in 6.2 mi NNE 8.1 mph - N/A   Partly Cloudy
4:20 AM 46.4 °F 42.9 °F 42.8 °F 87% 29.92 in 6.2 mi North 6.9 mph - N/A   Partly Cloudy
4:50 AM 48.2 °F - 42.8 °F 82% 29.92 in 6.2 mi ENE 5.8 mph - N/A   Scattered Clouds
5:20 AM 48.2 °F - 44.6 °F 87% 29.92 in 6.2 mi NNE 5.8 mph - N/A Rain Light Rain Showers
5:50 AM 48.2 °F - 44.6 °F 87% 29.92 in 6.2 mi NNE 8.1 mph - N/A   Partly Cloudy
6:20 AM 46.4 °F 41.9 °F 44.6 °F 93% 29.92 in 6.2 mi North 9.2 mph - N/A   Unknown
6:50 AM 47 °F - 43 °F 81% 29.94 in 17 mi NNE 10.4 mph - -  
6:50 AM 46.4 °F 41.5 °F 42.8 °F 87% 29.92 in 6.2 mi NNE 10.4 mph - N/A   Unknown
7:20 AM 48.2 °F - 44.6 °F 87% 29.92 in 6.2 mi NNE 10.4 mph - N/A   Unknown
7:50 AM 50.0 °F - 46.4 °F 87% 29.95 in 6.2 mi NNE 10.4 mph - N/A   Partly Cloudy
8:20 AM 51.8 °F - 44.6 °F 76% 29.95 in 6.2 mi NNE 12.7 mph - N/A   Partly Cloudy
8:50 AM 51.8 °F - 46.4 °F 82% 29.95 in 6.2 mi NNE 12.7 mph - N/A   Partly Cloudy
9:20 AM 53.6 °F - 48.2 °F 82% 29.95 in 6.2 mi NNE 13.8 mph - N/A   Partly Cloudy
9:50 AM 54 °F - 46 °F 66% 29.96 in 17 mi NNE 15.0 mph - -   Scattered Clouds
9:50 AM 53.6 °F - 46.4 °F 77% 29.95 in 6.2 mi NNE 15.0 mph - N/A   Partly Cloudy
10:20 AM 53.6 °F - 46.4 °F 77% 29.95 in 6.2 mi NE 12.7 mph - N/A   Partly Cloudy
10:50 AM 55.4 °F - 48.2 °F 77% 29.95 in 6.2 mi NE 13.8 mph - N/A   Partly Cloudy
11:20 AM 55.4 °F - 46.4 °F 72% 29.95 in 6.2 mi NNE 12.7 mph - N/A   Partly Cloudy
11:50 AM 55.4 °F - 46.4 °F 72% 29.95 in 6.2 mi NNE 15.0 mph - N/A   Partly Cloudy
12:20 PM 57.2 °F - 48.2 °F 72% 29.95 in 6.2 mi NNE 13.8 mph - N/A   Partly Cloudy
12:50 PM 57 °F - 47 °F 61% 29.98 in 18 mi NNE 15.0 mph - -  
12:50 PM 57.2 °F - 46.4 °F 67% 29.98 in 6.2 mi NNE 15.0 mph - N/A   Partly Cloudy
1:20 PM 57.2 °F - 46.4 °F 67% 29.98 in 6.2 mi NNE 16.1 mph - N/A   Scattered Clouds
1:50 PM 57.2 °F - 46.4 °F 67% 29.98 in 6.2 mi NNE 16.1 mph - N/A   Partly Cloudy
2:20 PM 57.2 °F - 46.4 °F 67% 29.98 in 6.2 mi NNE 16.1 mph - N/A   Scattered Clouds
2:50 PM 57.2 °F - 46.4 °F 67% 29.98 in 6.2 mi North 17.3 mph - N/A   Partly Cloudy
3:20 PM 57.2 °F - 48.2 °F 72% 29.98 in 6.2 mi North 19.6 mph - N/A   Unknown
3:50 PM 57 °F - 48 °F 62% 29.97 in 16 mi NNE 20.7 mph - -  
3:50 PM 57.2 °F - 48.2 °F 72% 29.95 in 6.2 mi NNE 20.7 mph - N/A   Unknown
4:20 PM 57.2 °F - 48.2 °F 72% 29.95 in 6.2 mi NNE 21.9 mph - N/A   Unknown
4:50 PM 55.4 °F - 46.4 °F 72% 29.95 in 6.2 mi NNE 23.0 mph - N/A   Unknown
5:20 PM 55.4 °F - 48.2 °F 77% 29.98 in 6.2 mi NNE 24.2 mph - N/A   Unknown
5:50 PM 55.4 °F - 46.4 °F 72% 29.95 in 6.2 mi NNE 23.0 mph - N/A   Unknown
6:20 PM 53.6 °F - 46.4 °F 77% 29.98 in 6.2 mi NNE 24.2 mph - N/A   Unknown
6:50 PM 54 °F - 45 °F 64% 29.98 in 15 mi NNE 23.0 mph - -   Scattered Clouds
6:50 PM 53.6 °F - 44.6 °F 72% 29.98 in 6.2 mi NNE 23.0 mph - N/A   Unknown
7:20 PM 53.6 °F - 44.6 °F 72% 29.98 in 6.2 mi NNE 23.0 mph - N/A   Unknown
7:50 PM 53.6 °F - 46.4 °F 77% 29.98 in 6.2 mi NNE 24.2 mph - N/A   Unknown
8:20 PM 53.6 °F - 46.4 °F 77% 30.01 in 6.2 mi NNE 23.0 mph - N/A   Unknown
8:50 PM 53.6 °F - 44.6 °F 72% 30.01 in 6.2 mi NNE 20.7 mph - N/A   Unknown
9:20 PM 53.6 °F - 44.6 °F 72% 30.01 in 6.2 mi NNE 24.2 mph - N/A   Unknown
9:50 PM 52 °F - 45 °F 68% 30.02 in 14 mi NNE 23.0 mph - -   Scattered Clouds
9:50 PM 51.8 °F - 44.6 °F 76% 30.01 in 6.2 mi NNE 23.0 mph - N/A   Unknown
10:20 PM 51.8 °F - 44.6 °F 76% 30.01 in 6.2 mi NNE 24.2 mph - N/A   Unknown
10:50 PM 51.8 °F - 44.6 °F 76% 30.01 in 6.2 mi NNE 25.3 mph - N/A   Partly Cloudy
11:20 PM 51.8 °F - 44.6 °F 76% 30.01 in 6.2 mi NNE 24.2 mph - N/A   Scattered Clouds
11:50 PM 51.8 °F - 42.8 °F 71% 29.98 in 6.2 mi NNE 26.5 mph - N/A   Partly Cloudy